Location: Bron Breck
(40.6655°N, 111.8083°W)
Time: 05:12:59
(UTC+00:00)

ISS - Pass Details

Date: 07 March 2021
Orbit: 418 x 422 km, 51.6° (Epoch: 16 April)

Event Time Altitude Azimuth Distance (km) Brightness Sun altitude
Exits shadow 11:40:09 15° 14° (NNE) 1,253 -1.0 -25.5°
Drops below altitude 10° 11:41:57 10° 47° (NE) 1,499 -0.1 -25.1°
Sets 11:44:46 0° 72° (ENE) 2,362 1.5 -24.6°
